Find Starlink 1267

NORAD ID: 45384 Int'l Des: 2020-019 Owner: SPXS Country: US Constellation: starlink operational
LEOCIRCULAR

現在のビュー

3D地球を読み込み中...

About Starlink 1267

Starlink 1267 (NORAD 45384) is a starlink constellation satellite (v1.0) launched Mar 18, 2020 by SPXS of US. It operates in LEO, CIRCULAR orbit with a mass of 260.00 kg.

Starlink 1267について

説明を読み込み中...

次回通過

Passes for default location (London). Set your location on the main map for personalized predictions.

高度履歴

Loading altitude history...

軌道要素

1 45384U 20019AA 26168.77510503 .00041699 00000-0 39956-3 0 9991
2 45384 53.0443 0.4096 0005270 144.9468 215.1894 15.66247316345894
Epoch: Jun 17, 2026 • Age: 14 hours

現在のステータス

高度 374.2 km
速度 7.69 km/s
衛星直下点 48.99°N, 20.01°E
打ち上げ日 Mar 18, 2020
運用期間 6.2 years
タイプ internet

技術仕様

分類 Payload
質量 260.00 kg
乾燥質量 248.00 kg
総質量 260.00 kg
長さ 0.20 m
直径 2.80 m
スパン 9.00 m
形状 Box + pan
製造者 SPXS
バスタイプ Starlink
フェーズステータス In Orbit
所有者/国 SPXS/US

Most Searched